Weather History for K79J - November, 2011

Change the Weather History Date:

Thursday, November 17, 2011

  Actual Average (KCEW) Record (KCEW)
Temperature  
Mean Temperature 56 °F -  
Max Temperature 66 °F 69 °F 82 °F (1991)
Min Temperature 45 °F 45 °F 26 °F (1997)
Degree Days  
Heating Degree Days 10    
Growing Degree Days 6 (Base 50)    
Moisture  
Dew Point 43 °F    
Average Humidity 60    
Maximum Humidity 88    
Minimum Humidity 25    
Precipitation  
Precipitation 0.01 in - - ()
Sea Level Pressure  
Sea Level Pressure 30.14 in    
Wind  
Wind Speed 11 mph (North)    
Max Wind Speed 20 mph    
Max Gust Speed 29 mph    
Visibility 10 miles    
Events      
Averages and records for this station are not official NWS values.
T = Trace of Precipitation, MM = Missing Value Source: NWS Daily Summary

Daily Weather History Graph

Daily Weather History Graph

Search for Another Location

Airport or City:

Trip Planner

Search our weather history database for the weather conditions in past years. The results will help you decide how hot, cold, wet, or windy it might be!

Date:

Astronomy

Nov. 17, 2011 Rise Set
Actual Time 6:14 AM CST 4:46 PM CST
Civil Twilight 5:48 AM CST 5:11 PM CST
Nautical Twilight 5:19 AM CST 5:41 PM CST
Astronomical Twilight 4:50 AM CST 6:10 PM CST
Moon 10:57 PM CST (11/17) 11:29 AM CST (11/17)
Length of Visible Light 11h 23m
Length of Day
10h 31m
Waning Gibbous, 59% of the Moon is Illuminated
Nov 17
Waning Gibbous
Nov 18
Last Quarter
Nov 25
New
Dec 2
First Quarter
Dec 10
Full

Hourly Weather History & Observations

Time (CST) Temp. Windchill Dew Point Humidity Pressure Visibility Wind Dir Wind Speed Gust Speed Precip Events Conditions
12:37 AM 66.2 °F - 62.6 °F 88% 29.93 in 7.0 mi NNW 5.8 mph - N/A   Mostly Cloudy
12:56 AM 66.0 °F - 62.1 °F 87% 29.93 in 9.0 mi NNW 6.9 mph - N/A   Overcast
1:24 AM 66.2 °F - 62.6 °F 88% 29.95 in 9.0 mi North 6.9 mph - N/A   Overcast
1:56 AM 64.9 °F - 60.1 °F 84% 29.96 in 10.0 mi North 18.4 mph 25.3 mph 0.01 in   Overcast
2:10 AM 64.4 °F - 59.0 °F 83% 29.97 in 10.0 mi NNW 15.0 mph 23.0 mph N/A   Overcast
2:56 AM 63.0 °F - 55.9 °F 78% 29.98 in 10.0 mi North 13.8 mph 25.3 mph N/A   Overcast
3:56 AM 61.0 °F - 54.0 °F 78% 30.01 in 10.0 mi North 19.6 mph 25.3 mph N/A   Overcast
4:56 AM 60.1 °F - 52.0 °F 75% 30.06 in 10.0 mi North 15.0 mph - N/A   Overcast
5:56 AM 59.0 °F - 51.1 °F 75% 30.09 in 10.0 mi North 15.0 mph 28.8 mph N/A   Overcast
6:04 AM 57.2 °F - 51.8 °F 82% 30.11 in 10.0 mi North 13.8 mph 21.9 mph N/A   Overcast
6:32 AM 57.2 °F - 50.0 °F 77% 30.12 in 10.0 mi North 15.0 mph 20.7 mph N/A   Overcast
6:56 AM 57.0 °F - 48.9 °F 74% 30.13 in 10.0 mi North 19.6 mph 24.2 mph N/A   Overcast
7:19 AM 55.4 °F - 48.2 °F 77% 30.15 in 10.0 mi North 15.0 mph 20.7 mph N/A   Overcast
7:43 AM 55.4 °F - 46.4 °F 72% 30.16 in 10.0 mi North 13.8 mph 23.0 mph N/A   Overcast
7:56 AM 55.9 °F - 46.9 °F 72% 30.17 in 10.0 mi NNW 13.8 mph 18.4 mph N/A   Overcast
8:34 AM 55.4 °F - 42.8 °F 63% 30.19 in 10.0 mi North 12.7 mph - N/A   Scattered Clouds
8:56 AM 57.0 °F - 43.0 °F 59% 30.19 in 10.0 mi North 10.4 mph - N/A   Clear
9:56 AM 61.0 °F - 43.0 °F 52% 30.19 in 10.0 mi North 11.5 mph 17.3 mph N/A   Clear
10:56 AM 63.0 °F - 39.9 °F 43% 30.19 in 10.0 mi NNE 13.8 mph - N/A   Clear
11:56 AM 64.9 °F - 37.0 °F 36% 30.17 in 10.0 mi NNE 15.0 mph 21.9 mph N/A   Clear
12:56 PM 66.0 °F - 34.0 °F 30% 30.16 in 10.0 mi NNE 13.8 mph 21.9 mph N/A   Clear
1:56 PM 62.6 °F - 33.8 °F 34% 30.16 in 10.0 mi North 16.1 mph 24.2 mph N/A   Clear
2:56 PM 64.9 °F - 28.0 °F 25% 30.18 in 10.0 mi NNE 11.5 mph - N/A   Clear
3:56 PM 62.1 °F - 27.0 °F 26% 30.20 in 10.0 mi NNE 11.5 mph 20.7 mph N/A   Clear
4:56 PM 57.0 °F - 30.0 °F 36% 30.22 in 10.0 mi NNE 6.9 mph - N/A   Clear
5:56 PM 54.0 °F - 30.9 °F 41% 30.25 in 10.0 mi North - - N/A   Clear
6:56 PM 51.1 °F - 32.0 °F 48% 30.27 in 10.0 mi NNE 6.9 mph - N/A   Unknown
7:56 PM 48.9 °F - 30.9 °F 50% 30.29 in 10.0 mi NNE 6.9 mph - N/A   Clear
8:56 PM 48.0 °F - 28.0 °F 46% 30.31 in 10.0 mi ENE 4.6 mph - N/A   Clear
9:56 PM 46.9 °F - 26.1 °F 44% 30.30 in 10.0 mi NE 4.6 mph - N/A   Clear
10:56 PM 45.0 °F 41.8 °F 26.1 °F 48% 30.30 in 10.0 mi East 5.8 mph - N/A   Clear
11:56 PM 45.0 °F 41.8 °F 25.0 °F 46% 30.29 in 10.0 mi ENE 5.8 mph - N/A   Clear